Regional Weather Roundup
Issued by NWS Sioux Falls, SD

Home | Current Version | Previous Version | Text Only | Print | Product List | Glossary On
Versions: 1 2 3 4 5 6 7 8 9 10 11 12 13 14 15 16 17 18 19 20 21 22 23 24 25 26 27 28 29 30 31 32 33 34 35 36 37 38 39 40 41 42 43 44 45 46 47 48 49 50
000
ASUS43 KFSD 170002
RWRFSD

WEATHER ROUNDUP FOR SE SOUTH DAKOTA/SW MINNESOTA/NW IOWA
NATIONAL WEATHER SERVICE SIOUX FALLS SD
700 PM CDT TUE SEP 16 2014

NOTE: "FAIR" INDICATES FEW OR NO CLOUDS BELOW 12,000 FEET WITH NO
SIGNIFICANT WEATHER AND OR OBSTRUCTIONS TO VISIBILITY.


SDZ038>040-050-052>070-170100-
SOUTHEAST SOUTH DAKOTA

CITY           SKY/WX    TMP DP  RH WIND       PRES   REMARKS
CHAMBERLAIN    CLEAR     72  60  65 SE3       29.89F
6HR MIN TEMP:  68; 6HR MAX TEMP:  76;

HURON          PTCLDY    71  55  56 S7        29.90F
6HR MIN TEMP:  67; 6HR MAX TEMP:  74;

MADISON        CLOUDY    64  52  63 S9        29.98S
MITCHELL       PTCLDY    70  56  61 S12       29.93F
6HR MIN TEMP:  68; 6HR MAX TEMP:  74;

SIOUX FALLS    MOCLDY    65  50  58 S13       29.98F
6HR MIN TEMP:  65; 6HR MAX TEMP:  68;

WINNER         FAIR      77  56  48 N5        29.91F
YANKTON        CLOUDY    66  52  59 S8        29.97F
$$

MNZ071-072-080-081-089-090-097-098-170100-
SOUTHWEST MINNESOTA

CITY           SKY/WX    TMP DP  RH WIND       PRES   REMARKS
FAIRMONT       MOCLDY    64  43  45 S6        30.02F
JACKSON        CLOUDY    63  46  55 S3        30.03S
LUVERNE        CLOUDY    64  45  48 S10       30.00F
MARSHALL       CLOUDY    66  46  48 S6        29.98S
6HR MIN TEMP:  66; 6HR MAX TEMP:  70;

MONTEVIDEO     CLOUDY    66  48  52 SW6       29.99S
PIPESTONE      MOCLDY    63  48  59 S6        29.99F
REDWOOD FALLS  CLOUDY    64  48  56 SE6       29.99F
TRACY          CLOUDY    64  50  59 CALM      29.99F
WINDOM         PTCLDY    63  48  59 SE5       30.01F
WORTHINGTON    CLOUDY    63  46  55 S8        30.01F
$$

IAZ001>003-012>014-020>022-031-032-NEZ013-014-SDZ071-170100-
NORTHWEST IOWA

CITY           SKY/WX    TMP DP  RH WIND       PRES   REMARKS
CHEROKEE       CLEAR     63  49  61 S3        30.02F
DENISON        CLEAR     63  50  63 SE5       30.02F
ESTHERVILLE    CLEAR     61  46  57 S5        30.02F
LE MARS        CLEAR     64  50  59 SE8       30.01F
ORANGE CITY    CLEAR     66  48  52 S6        30.01F
SHELDON        CLEAR     63  50  63 S7        30.00F
SIOUX CITY     PTCLDY    64  50  60 S5        30.01F
6HR MIN TEMP:  64; 6HR MAX TEMP:  70;

SPENCER        CLEAR     64  48  56 S6        30.03F
6HR MIN TEMP:  63; 6HR MAX TEMP:  68;

STORM LAKE     CLEAR     61  52  72 S7        30.04S
$$

ABBREVIATIONS USED IN REMARKS
   TC - TEMPERATURE IN CELSIUS
  WCI - WIND CHILL INDEX
   HX - HEAT INDEX
  VSB - VISIBILITY



USA.gov is the U.S. government's official web portal to all federal, state and local government web resources and services.